[[{"header":{"parameterUnit":"m.s-1","parameterCategory":1,"la1":30.2991,"la2":30.254,"lo1":-89.0895,"lo2":-89.0444,"dy":0.0017,"dx":0.0017,"nx":28,"ny":28,"refTime":"2026-03-05T03:00:00:Z","depth":0,"parameterNumber":2,"parameterNumberName":"U-component_of_WINDS"},"data":[0,0,0,0,0,0,0,0,0,0,0,0,0,0,0,0,0,0,0,0,0,0,0,0,0,0,0,0,0,0,0,0,0,0,0,0,0,0,0,0,0,0,0,0,0,0,0,0,0,0,0,0,0,0,0,0,0,0,-3.949,-3.949,0,-3.9519,-3.9519,-3.9519,-3.9497,-3.9496,-3.9495,-3.9494,-3.9523,-3.9525,-3.9527,0,0,0,0,0,0,0,0,0,0,0,0,0,-3.9418,-3.9419,-3.949,-3.949,-3.949,-3.9519,-3.9519,-3.9519,-3.9497,-3.9496,-3.9495,-3.9494,-3.9523,-3.9525,-3.9527,0,0,0,0,0,0,0,0,0,0,0,0,0,-3.9448,-3.942,-3.949,-3.9483,-3.9482,-3.9519,-3.9519,-3.952,-3.9497,-3.9496,-3.9495,-3.9493,-3.9522,-3.9524,-3.9527,-3.9571,0,0,-3.9535,-3.9536,0,0,0,0,0,0,0,0,-3.9446,-3.9451,-3.9483,-3.9483,-3.9483,-3.9503,-3.9504,-3.9537,-3.9498,-3.9492,-3.9494,-3.9492,-3.9518,-3.952,-3.9529,-3.9573,-3.9574,-3.9535,-3.9536,-3.9537,-3.9538,0,0,0,0,0,0,0,-3.9444,-3.9449,-3.9501,-3.9484,-3.9484,-3.9479,-3.9482,-3.951,-3.9512,-3.9492,-3.9491,-3.9494,-3.9517,-3.9527,-3.9529,-3.9574,-3.9535,-3.9537,-3.9539,-3.954,-3.966,-3.9661,0,0,0,0,0,0,-3.9443,-3.9448,-3.95,-3.9502,-3.9461,-3.9482,-3.9485,-3.9498,-3.9512,-3.9513,-3.9496,-3.9493,-3.9523,-3.9527,-3.953,-3.9584,-3.9537,-3.954,-3.9541,-3.9658,-3.966,-3.9662,0,0,0,0,0,0,-3.9441,-3.9448,-3.9499,-3.9475,-3.9481,-3.9484,-3.9499,-3.9499,-3.9508,-3.9515,-3.9515,-3.9505,-3.9522,-3.9527,-3.9562,-3.9585,-3.9541,-3.9543,-3.9656,-3.9659,-3.9661,-3.9692,0,0,0,0,0,0,-3.9439,-3.9447,-3.9463,-3.9475,-3.9482,-3.9529,-3.9501,-3.9501,-3.9513,-3.951,-3.9523,-3.9524,-3.9521,-3.9559,-3.9565,-3.9588,-3.9545,-3.9654,-3.9657,-3.966,-3.9689,-3.9695,-3.97,0,0,0,0,0,-3.9437,-3.947,-3.9464,-3.947,-3.9502,-3.953,-3.9535,-3.9531,-3.9515,-3.9531,-3.9536,-3.9523,-3.9583,-3.9562,-3.9569,-3.9593,-3.9652,-3.9656,-3.966,-3.9686,-3.9694,-3.97,0,0,0,0,0,0,-3.9458,-3.9471,-3.9464,-3.9502,-3.9516,-3.9527,-3.9547,-3.9539,-3.9557,-3.9553,-3.9549,-3.9552,-3.9589,-3.9595,-3.9572,-3.9639,-3.9615,-3.962,-3.9632,-3.964,-3.9646,-3.9642,-3.9547,0,0,0,0,0,-3.9468,-3.949,-3.95,-3.9532,-3.9539,-3.9543,-3.9555,-3.9552,-3.9565,-3.957,-3.9577,-3.9591,-3.9613,-3.9627,-3.9648,-3.9691,-3.9694,-3.9711,-3.9717,-3.9722,-3.9726,-3.9751,-3.9759,-3.9674,-3.9674,-3.9674,0,0,-3.9486,-3.9496,-3.951,-3.9537,-3.9547,-3.957,-3.9547,-3.9572,-3.959,-3.9574,-3.9607,-3.9614,-3.963,-3.967,-3.9688,-3.9676,-3.9751,-3.9727,-3.9731,-3.9732,-3.9756,-3.9764,-3.9771,-3.9677,-3.9676,-3.9676,0,0,-3.9533,-3.9542,-3.9571,-3.9583,-3.9599,-3.9602,-3.9609,-3.9623,-3.9627,-3.9661,-3.9651,-3.9673,-3.971,-3.9722,-3.9733,-3.9791,-3.978,-3.9798,-3.9827,-3.9852,-3.9859,-3.9865,-3.9885,-3.9893,-3.9802,-3.9802,-3.9803,0,-3.9553,-3.9588,-3.9587,-3.9614,-3.9627,-3.9616,-3.9646,-3.9658,-3.968,-3.969,-3.9677,-3.9726,-3.9736,-3.9779,-3.9794,-3.9803,-3.9812,-3.9794,-3.9858,-3.9864,-3.987,-3.9889,-3.9897,-3.9804,-3.9804,-3.9804,-3.9804,0,-3.9613,-3.9638,-3.966,-3.9683,-3.9699,-3.9727,-3.9732,-3.9748,-3.9746,-3.9751,-3.9787,-3.98,-3.9823,-3.9835,-3.9831,-3.9879,-3.9871,-3.9859,-3.9834,-3.988,-3.9898,-3.9905,-3.9807,-3.9807,-3.9806,-3.9805,0,0,-3.9668,-3.9694,-3.9702,-3.9714,-3.9734,-3.9753,-3.9784,-3.9808,-3.9822,-3.984,-3.9865,-3.99,-3.989,-3.9903,-3.9902,-3.9924,-3.997,-3.9909,-3.9909,-3.9919,-4.0024,-4.0032,-4.0041,-3.9965,-3.9966,-3.9967,-4.0023,0,-3.9715,-3.9766,-3.9768,-3.9815,-3.9839,-3.9832,-3.9859,-3.9875,-3.9882,-3.9904,-3.9912,-3.9937,-3.9921,-3.9929,-3.9951,-3.9959,-3.9991,-3.9956,-3.9988,-3.9989,-3.9981,-4.005,-4.0057,-4.0109,-4.003,-4.0031,-4.0032,0,-3.9774,-3.9795,-3.9845,-3.9865,-3.9875,-3.9898,-3.9923,-3.9944,-3.9964,-3.9968,-3.9985,-3.9982,-4.0015,-3.9992,-4.0037,-4.0014,-4.0028,-4.0035,-4.0037,-4.0037,-4.0011,-4.0051,-4.0125,-4.0132,-4.0043,-4.0043,-4.0042,0,-3.9808,-3.985,-3.9885,-3.9896,-3.992,-3.9937,-3.9948,-3.9967,-3.9983,-4.0005,-4.0016,-4.0041,-4.0055,-4.0076,-4.0081,-4.0064,-4.0127,-4.0104,-4.013,-4.013,-4.0141,-4.0139,-4.0216,-4.0154,-4.0154,-4.0153,-4.0153,0,-3.9859,-3.9889,-3.9901,-3.9923,-3.9958,-3.9963,-3.9998,-4.0008,-4.0025,-4.005,-4.0047,-4.007,-4.0076,-4.0102,-4.0106,-4.0144,-4.015,-4.0154,-4.0155,-4.0153,-4.0153,-4.016,-4.0156,-4.0155,-4.0155,-4.0155,-4.0154,0,-3.9901,-3.991,-3.9949,-3.9971,-3.9977,-4.0002,-4.0021,-4.0043,-4.0052,-4.0083,-4.0091,-4.0105,-4.0134,-4.0143,-4.0178,-4.0182,-4.0225,-4.0223,-4.0218,-4.0218,-4.0243,-4.024,-4.0326,-4.0337,-4.0269,-4.0269,-4.027,0,-3.9931,-3.9954,-3.998,-3.9997,-4.0009,-4.0036,-4.0053,-4.006,-4.0078,-4.0106,-4.0124,-4.0155,-4.0178,-4.0227,-4.024,-4.0268,-4.0266,-4.0294,-4.0269,-4.0268,-4.0265,-4.0263,-4.0266,-4.0297,-4.0298,-4.0299,-4.0299,0,-3.9983,-3.9988,-4.0012,-4.004,-4.0061,-4.0083,-4.0105,-4.0119,-4.013,-4.0151,-4.0182,-4.0201,-4.0239,-4.0269,-4.0298,-4.0311,-4.0307,-4.0308,-4.0315,-4.0312,-4.0308,-4.0311,-4.0229,-4.0305,-4.0304,-4.0304,-4.0303,-4.0303,-4.0019,-4.0041,-4.0063,-4.0092,-4.011,-4.0131,-4.0153,-4.0166,-4.0193,-4.0224,-4.0228,-4.0262,-4.0285,-4.0325,-4.034,-4.0367,-4.0359,-4.0369,-4.0372,-4.0374,-4.0376,-4.0307,-4.0373,-4.0373,-4.0372,-4.0372,-4.0372,0,-4.0071,-4.0086,-4.0113,-4.0144,-4.0167,-4.0165,-4.0189,-4.0209,-4.0239,-4.0262,-4.0287,-4.0324,-4.0355,-4.0373,-4.0404,-4.0422,-4.0422,-4.043,-4.0428,-4.0431,-4.0382,-4.0372,-4.043,-4.043,-4.043,-4.043,-4.043,-4.043,-4.01,-4.0137,-4.0145,-4.0193,-4.0208,-4.0242,-4.0257,-4.0277,-4.0295,-4.0337,-4.0363,-4.0375,-4.0397,-4.043,-4.0459,-4.0463,-4.0474,-4.0484,-4.0487,-4.044,-4.0434,-4.0428,-4.0419,-4.0486,-4.0486,-4.0534,-4.0534,-4.0535]},{"header":{"parameterUnit":"m.s-1","parameterCategory":1,"la1":30.2991,"la2":30.254,"lo1":-89.0895,"lo2":-89.0444,"dy":0.0017,"dx":0.0017,"nx":28,"ny":28,"refTime":"2026-03-05T03:00:00:Z","depth":0,"parameterNumber":3,"parameterNumberName":"V-component_of_WINDS"},"data":[0,0,0,0,0,0,0,0,0,0,0,0,0,0,0,0,0,0,0,0,0,0,0,0,0,0,0,0,0,0,0,0,0,0,0,0,0,0,0,0,0,0,0,0,0,0,0,0,0,0,0,0,0,0,0,0,0,0,2.5444,2.5445,0,2.5474,2.5474,2.5474,2.5579,2.5581,2.5584,2.5586,2.5609,2.5608,2.5606,0,0,0,0,0,0,0,0,0,0,0,0,0,2.5476,2.5475,2.5444,2.5445,2.5445,2.5473,2.5474,2.5474,2.5578,2.5581,2.5584,2.5587,2.561,2.5608,2.5606,0,0,0,0,0,0,0,0,0,0,0,0,0,2.5479,2.5475,2.5444,2.5501,2.5506,2.5473,2.5474,2.5474,2.5578,2.5581,2.5585,2.5588,2.561,2.5608,2.5606,2.5519,0,0,2.5598,2.5597,0,0,0,0,0,0,0,0,2.5479,2.5478,2.5492,2.5497,2.5503,2.5526,2.5494,2.5489,2.5577,2.555,2.5586,2.559,2.5578,2.5579,2.5576,2.552,2.5521,2.5598,2.5597,2.5596,2.5595,0,0,0,0,0,0,0,2.5478,2.5477,2.5456,2.5492,2.5499,2.5524,2.5528,2.5493,2.5544,2.5553,2.5561,2.5563,2.5582,2.5578,2.5577,2.5521,2.5598,2.5596,2.5595,2.5594,2.5399,2.5396,0,0,0,0,0,0,2.5471,2.5476,2.5455,2.5457,2.55,2.552,2.5525,2.5515,2.5544,2.5552,2.556,2.5568,2.5581,2.558,2.5579,2.5482,2.5596,2.5593,2.5592,2.5403,2.5398,2.5394,0,0,0,0,0,0,2.5471,2.5468,2.5454,2.5469,2.5469,2.5516,2.5504,2.5514,2.551,2.555,2.5559,2.5547,2.5583,2.5582,2.5534,2.5484,2.5592,2.559,2.5407,2.5401,2.5396,2.5285,0,0,0,0,0,0,2.5472,2.5467,2.5435,2.5467,2.5468,2.5409,2.5501,2.5512,2.5507,2.5517,2.554,2.5547,2.5586,2.5537,2.5532,2.5482,2.5588,2.5412,2.5405,2.5398,2.5293,2.5276,2.5261,0,0,0,0,0,2.5472,2.5401,2.5433,2.543,2.5429,2.5406,2.5406,2.5454,2.5502,2.547,2.5496,2.5547,2.549,2.5532,2.5526,2.5475,2.5415,2.5407,2.5399,2.53,2.5279,2.5262,0,0,0,0,0,0,2.5358,2.5406,2.5442,2.5379,2.5388,2.5424,2.5385,2.543,2.5424,2.5434,2.5492,2.5496,2.544,2.5453,2.5498,2.5395,2.5461,2.5452,2.5388,2.5369,2.5353,2.5352,2.5586,0,0,0,0,0,2.5327,2.5306,2.5348,2.5288,2.5291,2.5337,2.5329,2.5366,2.5376,2.538,2.5402,2.5409,2.5394,2.5382,2.537,2.5296,2.5303,2.5258,2.5242,2.5229,2.522,2.5185,2.5166,2.5367,2.5367,2.5367,0,0,2.5259,2.5283,2.5265,2.5266,2.5277,2.5254,2.5339,2.531,2.5293,2.5375,2.5333,2.5349,2.5361,2.5301,2.5275,2.5309,2.5166,2.5219,2.5208,2.5206,2.5174,2.5155,2.5138,2.5361,2.5362,2.5363,0,0,2.5125,2.514,2.5094,2.5105,2.5122,2.5154,2.5143,2.5172,2.5188,2.5147,2.5209,2.5189,2.516,2.5167,2.5166,2.5039,2.5086,2.5033,2.495,2.4915,2.4899,2.4885,2.4842,2.4825,2.5024,2.5024,2.5023,0,2.5039,2.5008,2.5063,2.5032,2.5031,2.5107,2.506,2.5067,2.5078,2.5076,2.5115,2.5083,2.5096,2.504,2.5009,2.5006,2.4995,2.5031,2.4897,2.4884,2.4872,2.4831,2.4814,2.5017,2.5018,2.5019,2.5019,0,2.4902,2.4879,2.4839,2.4852,2.4847,2.4807,2.4856,2.4844,2.4882,2.4909,2.4867,2.4887,2.4881,2.487,2.4905,2.4819,2.4841,2.4887,2.4956,2.4846,2.4808,2.4793,2.5008,2.501,2.5012,2.5014,0,0,2.4694,2.4742,2.4726,2.4735,2.4761,2.4744,2.4709,2.4706,2.4695,2.4701,2.4673,2.4649,2.4694,2.4693,2.473,2.4699,2.46,2.475,2.4752,2.4723,2.4509,2.4474,2.4455,2.4631,2.4629,2.4626,2.4509,0,2.4569,2.4513,2.4564,2.4498,2.4479,2.4553,2.4523,2.4535,2.4561,2.4547,2.4575,2.4558,2.4617,2.4618,2.4591,2.4618,2.4558,2.4627,2.4606,2.4604,2.4601,2.4435,2.4398,2.4285,2.4494,2.4491,2.449,0,2.4414,2.4417,2.435,2.4385,2.4378,2.435,2.4354,2.434,2.4356,2.4377,2.4379,2.4425,2.4393,2.446,2.4417,2.4463,2.4457,2.447,2.4466,2.4467,2.454,2.4432,2.4251,2.4234,2.4467,2.4469,2.447,0,2.4272,2.4258,2.4218,2.4222,2.4261,2.424,2.4254,2.4275,2.4271,2.4273,2.4272,2.4269,2.4267,2.4264,2.4308,2.4353,2.426,2.433,2.4276,2.4275,2.4253,2.4254,2.4069,2.4248,2.4248,2.4248,2.4249,0,2.4126,2.4083,2.4156,2.413,2.4084,2.4143,2.4096,2.4118,2.4136,2.4116,2.4178,2.4158,2.4218,2.4204,2.4239,2.4199,2.4197,2.4213,2.4223,2.4208,2.4206,2.4205,2.4214,2.4244,2.4245,2.4246,2.4247,0,2.396,2.4006,2.3967,2.4009,2.4018,2.3982,2.4017,2.3996,2.4027,2.4001,2.3998,2.4046,2.4033,2.4078,2.4071,2.4095,2.4036,2.4058,2.4031,2.4039,2.3983,2.3988,2.3792,2.377,2.3961,2.3959,2.3958,0,2.3864,2.3833,2.3873,2.3866,2.3878,2.3864,2.3862,2.3919,2.3914,2.3933,2.3909,2.3902,2.3899,2.3875,2.3909,2.3905,2.3928,2.3859,2.3927,2.3914,2.3928,2.393,2.3928,2.3845,2.3843,2.3841,2.3839,0,2.3691,2.3716,2.3712,2.3716,2.3712,2.3717,2.3727,2.3717,2.3778,2.3769,2.3759,2.3757,2.3753,2.3745,2.3749,2.3763,2.3811,2.3818,2.3806,2.379,2.3777,2.3785,2.3994,2.3822,2.3824,2.3825,2.3826,2.3827,2.3558,2.3535,2.356,2.3554,2.3568,2.3576,2.3559,2.3589,2.3582,2.3585,2.3619,2.3602,2.3622,2.3632,2.3642,2.3629,2.3661,2.3642,2.3638,2.3633,2.3624,2.3779,2.363,2.363,2.3631,2.3631,2.3632,0,2.3389,2.341,2.3403,2.3417,2.3412,2.3461,2.3474,2.3466,2.3452,2.3467,2.3465,2.3454,2.3448,2.3482,2.348,2.3464,2.3486,2.3461,2.3464,2.3466,2.3595,2.3606,2.3444,2.3444,2.3444,2.3444,2.3444,2.3444,2.3301,2.3266,2.3295,2.3268,2.3288,2.3275,2.3279,2.3287,2.33,2.3286,2.3282,2.3306,2.3329,2.333,2.3327,2.3337,2.3334,2.3302,2.332,2.3439,2.3457,2.3474,2.3486,2.3301,2.33,2.3193,2.3192,2.3191]}]]